Kosmos-506

operational
NORAD ID: 6119 Int'l Des: 1972-057 Owner: OKB10 Country: SU
LEOCIRCULAR

About Kosmos-506

Description loading...

Live Position

Loading 3D Globe...

Upcoming Passes

Altitude History

Altitude vs Time

uPlot chart will show altitude changes over time

Two-Line Element Set

1 6119U 72057C 26061.08379642 -.00000024 00000-0 -44642-4 0 9994
2 6119 74.0285 176.3000 0073255 211.0596 322.8382 12.56205014458560
Epoch: Mar 2, 2026 • Age: 40 hours

Current Status

Altitude 1463.6 km
Velocity 7.13 km/s
Sub-Earth Point 68.53°N, 91.72°W
Type other

Large Constellations

Loading constellations...